📊 Raw Sensor Data
Showing records 40176 to 40200 of 84,958 total
| ID | Distance (ft) | Battery V | Battery A | Int Temp (°F) | Int Humid (%) | Ext Temp (°F) | Solar V | RSSI | SNR | Time Stamp |
|---|---|---|---|---|---|---|---|---|---|---|
| 44795 | 15.6 | 3.95 | 0 | 111 | 47 | 100 | 5.10 | -70 | 8 | 06/28/2025 04:30 PM |
| 44794 | 15.6 | 4.10 | 0 | 112 | 47 | 98 | 5.10 | -70 | 8 | 06/28/2025 04:15 PM |
| 44793 | 15.6 | 3.95 | 0 | 114 | 45 | 103 | 5.20 | -70 | 8 | 06/28/2025 04:00 PM |
| 44792 | 15.6 | 3.95 | 0 | 114 | 44 | 105 | 5.10 | -69 | 8 | 06/28/2025 03:45 PM |
| 44791 | 15.6 | 3.95 | 0 | 112 | 44 | 105 | 5.10 | -70 | 8 | 06/28/2025 03:30 PM |
| 44790 | 15.6 | 3.95 | 0 | 111 | 44 | 104 | 5.10 | -69 | 9 | 06/28/2025 03:15 PM |
| 44789 | 15.6 | 3.95 | 0 | 111 | 44 | 103 | 5.20 | -70 | 8 | 06/28/2025 03:00 PM |
| 44788 | 15.6 | 3.95 | 0 | 111 | 43 | 100 | 5.10 | -69 | 7 | 06/28/2025 02:45 PM |
| 44787 | 15.6 | 3.95 | 0 | 109 | 43 | 100 | 5.20 | -69 | 9 | 06/28/2025 02:30 PM |
| 44786 | 15.6 | 3.95 | 0 | 109 | 42 | 102 | 5.20 | -68 | 7 | 06/28/2025 02:15 PM |
| 44785 | 15.6 | 4.11 | 0 | 108 | 42 | 102 | 5.20 | -69 | 7 | 06/28/2025 02:00 PM |
| 44784 | 15.6 | 3.95 | 0 | 106 | 43 | 96 | 5.10 | -69 | 6 | 06/28/2025 01:45 PM |
| 44783 | 15.6 | 3.95 | 0 | 104 | 43 | 100 | 5.10 | -70 | 8 | 06/28/2025 01:30 PM |
| 44782 | 15.6 | 4.01 | 0 | 103 | 43 | 99 | 5.20 | -71 | 8 | 06/28/2025 01:15 PM |
| 44781 | 15.6 | 3.99 | 0 | 101 | 43 | 98 | 5.20 | -70 | 8 | 06/28/2025 01:00 PM |
| 44780 | 15.5 | 3.95 | 0 | 100 | 43 | 95 | 5.10 | -69 | 8 | 06/28/2025 12:45 PM |
| 44779 | 15.6 | 3.95 | 0 | 98 | 44 | 93 | 5.10 | -70 | 8 | 06/28/2025 12:30 PM |
| 44778 | 15.6 | 3.95 | 0 | 96 | 43 | 97 | 5.20 | -69 | 8 | 06/28/2025 12:15 PM |
| 44777 | 15.6 | 3.94 | 0 | 94 | 44 | 97 | 5.10 | -70 | 8 | 06/28/2025 12:00 PM |
| 44776 | 15.6 | 3.94 | 0 | 93 | 44 | 96 | 5.10 | -69 | 8 | 06/28/2025 11:45 AM |
| 44775 | 15.6 | 3.98 | 0 | 91 | 44 | 95 | 5.10 | -70 | 8 | 06/28/2025 11:30 AM |
| 44774 | 15.6 | 4.09 | 0 | 90 | 43 | 94 | 5.10 | -69 | 8 | 06/28/2025 11:15 AM |
| 44773 | 15.6 | 3.94 | 0 | 90 | 43 | 94 | 5.10 | -69 | 7 | 06/28/2025 11:00 AM |
| 44772 | 15.6 | 4.05 | 0 | 89 | 43 | 92 | 5.10 | -69 | 8 | 06/28/2025 10:45 AM |
| 44771 | 15.7 | 3.96 | 0 | 87 | 43 | 90 | 5.10 | -68 | 7 | 06/28/2025 10:30 AM |